Regional Weather Roundup
Issued by NWS

Home | Current Version | Previous Version | Graphics & Text | Print | Product List | Glossary On
Versions: 1 2 3 4 5 6 7 8 9 10 11 12 13 14 15 16 17 18 19 20 21 22 23 24 25 26 27 28 29 30 31 32 33 34 35 36 37 38 39 40 41 42 43 44 45 46 47 48 49 50
000
ASUS45 KBOU 281807
RWRCO

WEATHER ROUNDUP FOR COLORADO
NATIONAL WEATHER SERVICE DENVER/BOULDER CO
1200 PM MDT FRI APR 28 2017

NOTE: "FAIR" INDICATES FEW OR NO CLOUDS BELOW 12000 FEET WITH NO
SIGNIFICANT WEATHER AND/OR OBSTRUCTIONS TO VISIBILITY.

COZ001>005-013-030-031-281900-
...NORTHWEST COLORADO...

CITY           SKY/WX    TMP DP  RH WIND       PRES   REMARKS
CRAIG          PTSUNNY   40  20  44 W8        29.75S
HAYDEN         FAIR      36  18  48 W7        29.74S
MEEKER         FAIR      40  29  64 NW14      29.75R
MOUNT WERNER   NOT AVBL
STEAMBOAT SPGS CLOUDY    34  22  60 SW5       29.74R WCI  30
WALDEN           N/A     34  16  47 SE6       29.73R WCI  29
$$

COZ006>008-011-281900-
...WEST CENTRAL VALLEYS...

CITY           SKY/WX    TMP DP  RH WIND       PRES   REMARKS
GRAND JUNCTION FAIR      50  15  24 NW15G21   29.74F
MONTROSE       CLOUDY    45  12  26 CALM      29.75S
EAGLE          PTSUNNY   37  21  52 NE6       29.75R
RIFLE          PTSUNNY   45  21  38 N8G17     29.74S
DELTA          FAIR      52   4  14 W15       29.72F
NUCLA          CLOUDY    43  10  26 N6        29.77S
$$

COZ017>023-064>068-281900-
...SOUTHWEST COLORADO...

CITY           SKY/WX    TMP DP  RH WIND       PRES   REMARKS
DURANGO        CLOUDY    40  26  57 SW17      29.73F
CORTEZ         CLOUDY    45  19  35 SW15      29.75S
PAGOSA SPRINGS CLOUDY    38  22  51 S12       29.73F
TELLURIDE      CLOUDY    32   5  32 SW5       29.73S WCI  27
WOLF CREEK PAS LGT SNOW  21  14  73 S15G26    29.76S WCI   8
$$

COZ009-010-012-014-032>034-037-058>063-281900-
...CENTRAL COLORADO...

CITY           SKY/WX    TMP DP  RH WIND       PRES   REMARKS
ASPEN          FAIR      33  19  56 CALM      29.72R
BUENA VISTA    CLOUDY    38  15  39 W13G20    29.69S
COPPER MTN     LGT SNOW  19  14  79 NW6       29.71R WCI  11
BERTHOUD PASS  PTSUNNY   10   0  61 NW8G17    29.71R WCI  -1
COTTONWOOD PAS LGT SNOW  30  21  69 CALM      29.71S
GUNNISON       FAIR      38   3  23 VRB6      29.70F
KREMMLING      CLOUDY    39  23  52 SW6       29.74R
LEADVILLE      PTSUNNY   27   9  46 CALM      29.69S
MONARCH PASS     N/A     18  12  79 W14G20    29.81S WCI   4
SALIDA         PTSUNNY   45   8  22 W12       29.75F
SUNLIGHT       PTSUNNY   19  16  86 SW6       29.76R WCI  11
WILKERSON PASS PTSUNNY   28   3  34 SW7       29.73S WCI  21
$$

COZ069>075-281900-
...SAN LUIS VALLEY/SANGRE DE CRISTO MOUNTAINS...

CITY           SKY/WX    TMP DP  RH WIND       PRES   REMARKS
ALAMOSA        FAIR      44  16  32 S10       29.68F
LA VETA PASS   PTSUNNY   32  16  51 SW12G21   29.82F WCI  23
SAGUACHE       CLOUDY    41  12  30 E8        29.68F
$$

COZ035-036-038>040-281900-
...NORTHERN COLORADO FRONT RANGE...

CITY           SKY/WX    TMP DP  RH WIND       PRES   REMARKS
DENVER INTL AP PTSUNNY   49  18  29 E15       29.67R
DMNS CITY PARK   N/A     49  13  23 NE14      29.66S
AURORA         PTSUNNY   51  17  25 NE13G20   29.67R
FRONT RANGE AP PTSUNNY   50  21  32 NE9G20    29.68R
ERIE MUNI ARPT FAIR      53  15  22 SE6       29.66S
BOULDER MUN AP FAIR      54  21  28 NE14      29.65S
CENTENNIAL     PTSUNNY   50  13  22 SE3       29.66R
BROOMFIELD     MOSUNNY   50  14  23 N8        29.67R
FORT COLLINS   FAIR      52  22  30 E9        29.67S
LONGMONT       FAIR      57  22  25 E14       29.68S
$$

COZ041-046-047-076>085-087-088-281900-
...PIKES PEAK/PALMER DIVIDE AND SOUTHERN FOOTHILLS...

CITY           SKY/WX    TMP DP  RH WIND       PRES   REMARKS
COLO. SPRINGS  FAIR      51   4  14 VRB6G22   29.66F
A. F. ACADEMY  CLOUDY    46   7  19 NE3       29.65S
SCHRIEVER AFB  FAIR      49  11  21 S7G20     29.66F
ELLICOTT       FAIR     N/A N/A N/A S12G17    29.66S
FALCON         FAIR      48   3  15 CALM      29.68S
FORT CARSON    FAIR      52  13  21 NE3G17    29.64F
LIMON          FAIR      51  27  39 E12G20    29.68R
MONUMENT HILL  PTSUNNY   43  12  28 CALM      29.69S
TRINIDAD       CLOUDY    50  22  33 SE7       29.66F
$$

COZ042>045-048>051-090-091-281900-
...NORTHEAST COLORADO...

CITY           SKY/WX    TMP DP  RH WIND       PRES   REMARKS
GREELEY ARPT   FAIR      53  24  32 VRB7      29.69R
AKRON          CLOUDY    47  36  65 NE18      29.71R
BURLINGTON     NOT AVBL
WRAY           NOT AVBL
STERLING       PTSUNNY   43  37  81 NE15G24   29.72R
HOLYOKE        CLOUDY    41  37  87 E20       29.78R
FORT MORGAN    PTSUNNY   51  34  52 E14G20    29.70R
$$

COZ086-089-092>099-281900-
...SOUTHEAST COLORADO...

CITY           SKY/WX    TMP DP  RH WIND       PRES   REMARKS
PUEBLO         FAIR      55  20  25 SE10      29.64F
LA JUNTA       FAIR      56  23  27 SE5       29.66F
LAMAR          FAIR      58  40  51 N8        29.65R
SPRINGFIELD      N/A     57  33  40 S8        29.67R
$$



USA.gov is the U.S. government's official web portal to all federal, state and local government web resources and services.